Location: �bnet
(46.9957°N, 8.4908°E)
Time: 23:33:40
(UTC+00:00)

Cosmos 2181 Rocket - Pass Details

Date: 11 May 2021
Orbit: 952 x 1014 km, 82.9° (Epoch: 18 June)

Event Time Altitude Azimuth Distance (km) Brightness Sun altitude
Exits shadow 21:44:34 36° 127° (SE) 1,479 4.5 -21.3°
Maximum altitude 21:46:13 43° 90° (E) 1,315 4.5 -21.4°
Drops below altitude 10° 21:51:58 10° 20° (NNE) 2,692 6.9 -21.8°
Sets 21:54:34 0° 15° (NNE) 3,640 7.8 -21.9°
